Japanese version Home page |
Updated on September 25, 2005 |
Profile
|
Orbital ElementsT 2005 July 2.6025 TT MPC q 2.303839 (2000.0) P Q z +0.016919 Peri. 136.5456 -0.0406522 -0.5936660 Node 64.0351 -0.9671899 -0.1785017 e 0.961020 Incl. 116.6308 +0.2507810 -0.7846642 >From 193 observations 2005 July 6-Aug. 25.
|
Magnitudes Graphm1 = 14.2 + 5 log d + 10.0 log r
|
The orbital elements are published on M.P.E.C. 2005-Q38.
|